Weather in Djenne

Mali     13°54′02″N   4°33′20″W
temp.,
°C
wind,
m/s
gust,
m/s
humid.,
%
clouds,
%
prec.,
mm/h
press.,
hPa
HPBL,
m
8 may, sat
sat800:00+34wsw45265 0.1 100979
03:00+31sw58370 0.0 1009189
06:00+29sw23460 0.0 101161
09:00+34w443238 0.0 1012767
12:00+39nw341810 0.0 10102665
15:00+41nne251180 0.0 10064598
18:00+41ne3395 0.0 1006957
21:00+37nnw33102 0.0 100721
9 may, sun
sun900:00+34w221314 0.0 100712
03:00+32s221699 0.0 100712
06:00+31ssw3323100 0.0 100932
09:00+35ssw8925100 0.0 10111040
12:00+39wsw5519100 0.0 10092691
15:00+41w23145 0.0 10064168
18:00+41ssw331363 0.0 10052683
21:00+37ssw46185 0.0 1007107
10 may, mon
mon1000:00+34sse711255 0.0 1008349
03:00+30s8134432 0.0 1008566
06:00+29ssw713525 0.0 1010592
09:00+34sw79345 0.0 1011836
12:00+39sw65237 0.0 10091942
15:00+41wsw361795 0.0 10064560
18:00+40nne231797 0.0 1006672
21:00+37se462167 0.0 1009172
11 may, tue
tue1100:00+36s4624100 0.0 1009143
03:00+33sse6113455 0.0 1009413
06:00+31s593887 0.0 1011386
09:00+35ssw783046 0.0 10121100
12:00+39sw54225 0.0 10101750
15:00+41se38175 0.0 10074315
18:00+40nnw44189 0.0 1006790
21:00+37ssw46247 0.0 1009255
12 may, wed
wed1200:00+35wsw3325100 0.0 100951
03:00+33sw5830100 0.8 1009270
06:00+30ssw111347100 1.6 1011578
09:00+34wsw910389 0.0 1012900
12:00+39w4425100 0.0 10111992
15:00+40wnw23205 0.0 10072915
18:00+41nw34170 0.0 10063347
21:00+38w34210 0.0 100773